Flag for United Kingdom Weather past 2 weeks in Cardiff, Wales, United Kingdom

Now
55 °F

Mostly cloudy.


Feels Like: 53 °F
Forecast: 57 / 66 °F
Wind: 8 mph from East

Location: Wales Airport

Current Time: Oct 2, 2014 at 6:49:01 AM

Latest Report: Oct 2, 2014 at 6:20 AM


Visibility: N/A

Pressure: 30.39 "Hg

Humidity: 82%

Dew point: 50 °F

Location of CardiffLocation

Historic Weather in Cardiff — Graph

°F

Cardiff temperature yesterday

Maximum temperature yesterday: 64 °F (at 2:20 PM)
Minimum temperature yesterday: 55 °F (at 10:20 PM)
Average temperature yesterday: 60 °F

Past Weeks' High & Low Weather Summary

 TemperatureHumidityPressure
High73 °F (Sep 18, 4:50 PM)100% (Sep 18, 11:50 PM)30.39 "Hg (Sep 18, 11:50 PM)
Low46 °F (Sep 22, 4:20 AM)52% (Sep 24, 2:50 PM)29.77 "Hg (Sep 18, 4:20 AM)
Average60 °F85%30.11 "Hg
* Reported Sep 17 5:20 AM — Oct 2 5:50 AM, Cardiff, Weather by CustomWeather, © 2014

Note: Actual official high and low records may vary slightly from our data, if they occured in-between our weather recording intervals... More about our weather records

Advertising

Cardiff weather history for previous 24 hours

 ConditionsComfort  
Time TempWeatherWind HumidityBarometerVisibility
5:50 AM
Oct 2
54 °FPassing clouds.7 mph88%30.39 "HgN/A
5:20 AM54 °FClear.7 mph88%30.39 "Hg10 mi
4:50 AM55 °FClear.8 mph82%30.39 "Hg10 mi
4:20 AM55 °FClear.7 mph88%30.39 "Hg10 mi
3:50 AM55 °FPassing clouds.9 mph88%30.39 "HgN/A
3:20 AM55 °FOvercast.9 mph88%30.39 "HgN/A
2:50 AM55 °FMostly cloudy.10 mph88%30.39 "HgN/A
2:20 AM55 °FMostly cloudy.8 mph94%30.39 "HgN/A
1:50 AM55 °FMostly cloudy.8 mph94%30.39 "HgN/A
1:20 AM55 °FPassing clouds.8 mph94%30.39 "HgN/A
12:50 AM57 °FPassing clouds.8 mph88%30.39 "HgN/A
12:20 AM55 °FPassing clouds.7 mph94%30.39 "HgN/A
11:50 PM
Oct 1
55 °FPassing clouds.5 mph94%30.39 "HgN/A
11:20 PM55 °FCool.6 mph100%30.39 "HgN/A
10:50 PM55 °FPassing clouds.7 mph100%30.36 "HgN/A
10:20 PM55 °FPassing clouds.6 mph94%30.36 "HgN/A
9:50 PM57 °FPassing clouds.3 mph94%30.36 "HgN/A
9:20 PM57 °FPassing clouds.6 mph100%30.36 "HgN/A
8:50 PM59 °FPassing clouds.6 mph94%30.36 "HgN/A
8:20 PM59 °FPassing clouds.6 mph94%30.36 "HgN/A
7:50 PM59 °FPassing clouds.8 mph94%30.33 "HgN/A
7:20 PM61 °FScattered clouds.7 mph88%30.33 "HgN/A
6:50 PM61 °FBroken clouds.8 mph88%30.33 "HgN/A
6:20 PM63 °FBroken clouds.9 mph88%30.33 "HgN/A
5:50 PM63 °FPartly sunny.10 mph88%30.30 "HgN/A
5:20 PM63 °FPartly sunny.10 mph88%30.30 "HgN/A
4:50 PM64 °FPartly sunny.9 mph83%30.30 "HgN/A
4:20 PM64 °FMostly cloudy.9 mph83%30.30 "HgN/A
3:50 PM64 °FMostly cloudy.10 mph83%30.30 "HgN/A
3:20 PM64 °FMostly cloudy.10 mph83%30.30 "HgN/A
2:50 PM64 °FMostly cloudy.10 mph83%30.30 "HgN/A
2:20 PM64 °FPartly sunny.12 mph83%30.27 "HgN/A
1:50 PM63 °FMostly cloudy.8 mph88%30.27 "HgN/A
1:20 PM63 °FMostly cloudy.8 mph88%30.27 "HgN/A
12:50 PM61 °FMostly cloudy.7 mph88%30.27 "HgN/A
12:20 PM63 °FMore clouds than sun.7 mph83%30.27 "HgN/A
11:50 AM63 °FMostly cloudy.8 mph88%30.27 "HgN/A
11:20 AM63 °FMore clouds than sun.9 mph83%30.27 "HgN/A
10:50 AM63 °FMostly cloudy.12 mph88%30.27 "HgN/A
10:20 AM63 °FMostly cloudy.12 mph88%30.24 "HgN/A
9:50 AM61 °FMostly cloudy.10 mph94%30.24 "HgN/A
9:20 AM61 °FPartly sunny.9 mph88%30.24 "HgN/A
8:50 AM59 °FPartly sunny.8 mph94%30.24 "HgN/A
8:20 AM59 °FRain. Mostly cloudy.9 mph94%30.21 "Hg2 mi
7:50 AM59 °FOvercast.8 mph94%30.21 "HgN/A
7:20 AM59 °FPassing clouds.8 mph94%30.21 "HgN/A
6:50 AM59 °FPartly cloudy.7 mph88%30.21 "HgN/A
6:20 AM59 °FPassing clouds.8 mph88%30.21 "HgN/A
Weather by CustomWeather, © 2014

See weather overviewHow to use our weather pages